TimePDT,TemperatureF,Dew PointF,Humidity,Sea Level PressureIn,VisibilityMPH,Wind Direction,Wind SpeedMPH,Gust SpeedMPH,PrecipitationIn,Events,Conditions,WindDirDegrees,DateUTC
12:53 AM,46.9,44.1,90,30.31,10.0,Calm,Calm,-,N/A,,Overcast,0,2012-10-26 07:53:00
1:53 AM,46.9,43.0,86,30.29,10.0,West,5.8,-,N/A,,Overcast,280,2012-10-26 08:53:00
2:53 AM,46.9,43.0,86,30.26,10.0,Variable,3.5,-,N/A,,Overcast,0,2012-10-26 09:53:00
3:53 AM,48.9,41.0,74,30.23,10.0,East,12.7,-,N/A,,Overcast,90,2012-10-26 10:53:00
4:53 AM,48.9,41.0,74,30.24,10.0,SE,4.6,-,N/A,,Overcast,130,2012-10-26 11:53:00
5:53 AM,46.9,42.1,83,30.22,10.0,SSE,3.5,-,0.00,Rain,Light Rain,150,2012-10-26 12:53:00
6:53 AM,48.9,41.0,74,30.21,10.0,Calm,Calm,-,0.00,,Overcast,0,2012-10-26 13:53:00
7:53 AM,48.0,42.1,80,30.22,10.0,SSE,4.6,-,N/A,,Overcast,150,2012-10-26 14:53:00
8:53 AM,48.9,43.0,80,30.20,5.0,ESE,5.8,-,0.00,Rain,Light Rain,120,2012-10-26 15:53:00
9:01 AM,48.2,42.8,82,30.21,2.5,ESE,6.9,-,0.00,Rain,Light Rain,110,2012-10-26 16:01:00
9:24 AM,48.2,44.6,87,30.20,2.5,East,10.4,-,0.01,Rain,Light Rain,100,2012-10-26 16:24:00
9:53 AM,48.0,46.0,93,30.20,2.5,East,10.4,-,0.02,Rain,Light Rain,100,2012-10-26 16:53:00
10:41 AM,46.4,46.4,100,30.17,2.5,ESE,15.0,-,N/A,Rain,Light Rain,110,2012-10-26 17:41:00
10:53 AM,48.0,46.0,93,30.17,3.0,ESE,15.0,-,0.00,Rain,Light Rain,110,2012-10-26 17:53:00
11:45 AM,48.2,44.6,87,30.19,3.0,SE,8.1,-,0.00,Rain,Light Rain,130,2012-10-26 18:45:00
11:53 AM,46.9,45.0,93,30.19,3.0,ESE,8.1,-,0.01,Rain,Light Rain,110,2012-10-26 18:53:00
11:57 AM,46.4,44.6,93,30.19,2.0,ESE,9.2,-,0.00,Rain,Light Rain,110,2012-10-26 18:57:00
12:31 PM,48.2,46.4,93,30.18,3.0,ESE,12.7,-,0.01,Rain,Light Rain,120,2012-10-26 19:31:00
12:53 PM,48.0,46.0,93,30.17,3.0,East,12.7,-,0.01,Rain,Light Rain,100,2012-10-26 19:53:00
1:35 PM,48.2,46.4,93,30.16,3.0,ESE,15.0,-,0.00,,Overcast,120,2012-10-26 20:35:00
1:53 PM,48.9,46.9,93,30.15,3.0,ESE,13.8,-,0.00,,Overcast,110,2012-10-26 20:53:00
2:44 PM,51.8,48.2,88,30.14,10.0,ESE,15.0,-,N/A,,Overcast,110,2012-10-26 21:44:00
2:53 PM,51.1,48.0,89,30.14,10.0,ESE,12.7,-,N/A,,Overcast,110,2012-10-26 21:53:00
3:10 PM,51.8,48.2,88,30.13,10.0,ESE,12.7,-,N/A,,Overcast,110,2012-10-26 22:10:00
3:53 PM,54.0,50.0,86,30.14,10.0,ESE,9.2,-,N/A,,Overcast,110,2012-10-26 22:53:00
4:53 PM,57.9,48.9,72,30.14,10.0,SSW,5.8,-,N/A,,Overcast,200,2012-10-26 23:53:00
5:53 PM,53.6,50.0,88,30.14,10.0,East,5.8,-,N/A,,Overcast,100,2012-10-27 00:53:00
6:53 PM,54.0,48.9,83,30.14,10.0,Calm,Calm,-,N/A,,Mostly Cloudy,0,2012-10-27 01:53:00
7:53 PM,54.0,48.0,80,30.16,10.0,SSW,4.6,-,N/A,,Scattered Clouds,200,2012-10-27 02:53:00
8:53 PM,52.0,48.0,86,30.16,10.0,ESE,4.6,-,N/A,,Overcast,120,2012-10-27 03:53:00
9:53 PM,53.1,48.0,83,30.15,10.0,South,3.5,-,N/A,,Overcast,190,2012-10-27 04:53:00
10:53 PM,53.1,48.0,83,30.14,10.0,South,8.1,-,N/A,,Overcast,190,2012-10-27 05:53:00
11:53 PM,52.0,46.9,83,30.14,10.0,South,9.2,-,N/A,,Scattered Clouds,190,2012-10-27 06:53:00